Year,Month,Day,Hour,Minute,Value (Times are PST for temperature in C)
2010,05,05,00,00,4.60
2010,05,05,00,01,4.60
2010,05,05,00,02,4.60
2010,05,05,00,03,4.60
2010,05,05,00,04,4.60
2010,05,05,00,05,4.60
2010,05,05,00,06,4.50
2010,05,05,00,07,4.50
2010,05,05,00,08,4.50
2010,05,05,00,09,4.50
2010,05,05,00,10,4.40
2010,05,05,00,11,4.40
2010,05,05,00,12,4.40
2010,05,05,00,13,4.40
2010,05,05,00,14,4.40
2010,05,05,00,15,4.30
2010,05,05,00,16,4.30
2010,05,05,00,17,4.30
2010,05,05,00,18,4.30
2010,05,05,00,19,4.20
2010,05,05,00,20,4.20
2010,05,05,00,21,4.20
2010,05,05,00,22,4.20
2010,05,05,00,23,4.20
2010,05,05,00,24,4.20
2010,05,05,00,25,4.20
2010,05,05,00,26,4.20
2010,05,05,00,27,4.20
2010,05,05,00,28,4.20
2010,05,05,00,29,4.20
2010,05,05,00,30,4.20
2010,05,05,00,31,4.20
2010,05,05,00,32,4.20
2010,05,05,00,33,4.20
2010,05,05,00,34,4.20
2010,05,05,00,35,4.20
2010,05,05,00,36,4.20
2010,05,05,00,37,4.20
2010,05,05,00,38,4.20
2010,05,05,00,39,4.10
2010,05,05,00,40,4.10
2010,05,05,00,41,4.10
2010,05,05,00,42,4.10
2010,05,05,00,43,4.10
2010,05,05,00,44,4.10
2010,05,05,00,45,4.10
2010,05,05,00,46,4.10
2010,05,05,00,47,4.10
2010,05,05,00,48,4.10
2010,05,05,00,49,4.00
2010,05,05,00,50,4.00
2010,05,05,00,51,4.00
2010,05,05,00,52,4.00
2010,05,05,00,53,4.00
2010,05,05,00,54,4.00
2010,05,05,00,55,3.90
2010,05,05,00,56,3.90
2010,05,05,00,57,3.90
2010,05,05,00,58,3.90
2010,05,05,00,59,3.80
2010,05,05,01,00,3.80
2010,05,05,01,01,3.80
2010,05,05,01,02,3.80
2010,05,05,01,03,3.80
2010,05,05,01,04,3.80
2010,05,05,01,05,3.80
2010,05,05,01,06,3.80
2010,05,05,01,07,3.80
2010,05,05,01,08,3.80
2010,05,05,01,09,3.80
2010,05,05,01,10,3.80
2010,05,05,01,11,3.80
2010,05,05,01,12,3.80
2010,05,05,01,13,3.70
2010,05,05,01,14,3.70
2010,05,05,01,15,3.70
2010,05,05,01,16,3.70
2010,05,05,01,17,3.70
2010,05,05,01,18,3.70
2010,05,05,01,19,3.70
2010,05,05,01,20,3.70
2010,05,05,01,21,3.70
2010,05,05,01,22,3.70
2010,05,05,01,23,3.70
2010,05,05,01,24,3.60
2010,05,05,01,25,3.60
2010,05,05,01,26,3.60
2010,05,05,01,27,3.50
2010,05,05,01,28,3.50
2010,05,05,01,29,3.50
2010,05,05,01,30,3.40
2010,05,05,01,31,3.40
2010,05,05,01,32,3.30
2010,05,05,01,33,3.30
2010,05,05,01,34,3.30
2010,05,05,01,35,3.30
2010,05,05,01,36,3.30
2010,05,05,01,37,3.30
2010,05,05,01,38,3.30
2010,05,05,01,39,3.30
2010,05,05,01,40,3.30
2010,05,05,01,41,3.30
2010,05,05,01,42,3.20
2010,05,05,01,43,3.20
2010,05,05,01,44,3.20
2010,05,05,01,45,3.20
2010,05,05,01,46,3.20
2010,05,05,01,47,3.20
2010,05,05,01,48,3.20
2010,05,05,01,49,3.20
2010,05,05,01,50,3.20
2010,05,05,01,51,3.20
2010,05,05,01,52,3.20
2010,05,05,01,53,3.10
2010,05,05,01,54,3.10
2010,05,05,01,55,3.10
2010,05,05,01,56,3.10
2010,05,05,01,57,3.10
2010,05,05,01,58,3.10
2010,05,05,01,59,3.10
2010,05,05,02,00,3.00
2010,05,05,02,01,2.90
2010,05,05,02,02,2.90
2010,05,05,02,03,2.90
2010,05,05,02,04,2.90
2010,05,05,02,05,2.90
2010,05,05,02,06,2.90
2010,05,05,02,07,2.90
2010,05,05,02,08,2.90
2010,05,05,02,09,2.90
2010,05,05,02,10,2.90
2010,05,05,02,11,2.90
2010,05,05,02,12,2.90
2010,05,05,02,13,2.90
2010,05,05,02,14,2.90
2010,05,05,02,15,2.90
2010,05,05,02,16,2.90
2010,05,05,02,17,2.90
2010,05,05,02,18,2.90
2010,05,05,02,19,2.90
2010,05,05,02,20,2.90
2010,05,05,02,21,2.90
2010,05,05,02,22,2.90
2010,05,05,02,23,2.80
2010,05,05,02,24,2.80
2010,05,05,02,25,2.80
2010,05,05,02,26,2.80
2010,05,05,02,27,2.70
2010,05,05,02,28,2.70
2010,05,05,02,29,2.70
2010,05,05,02,30,2.70
2010,05,05,02,31,2.70
2010,05,05,02,32,2.70
2010,05,05,02,33,2.70
2010,05,05,02,34,2.70
2010,05,05,02,35,2.70
2010,05,05,02,36,2.70
2010,05,05,02,37,2.70
2010,05,05,02,38,2.70
2010,05,05,02,39,2.70
2010,05,05,02,40,2.70
2010,05,05,02,41,2.70
2010,05,05,02,42,2.70
2010,05,05,02,43,2.70
2010,05,05,02,44,2.70
2010,05,05,02,45,2.70
2010,05,05,02,46,2.70
2010,05,05,02,47,2.70
2010,05,05,02,48,2.70
2010,05,05,02,49,2.70
2010,05,05,02,50,2.70
2010,05,05,02,51,2.70
2010,05,05,02,52,2.70
2010,05,05,02,53,2.70
2010,05,05,02,54,2.70
2010,05,05,02,55,2.70
2010,05,05,02,56,2.70
2010,05,05,02,57,2.70
2010,05,05,02,58,2.70
2010,05,05,02,59,2.70
2010,05,05,03,00,2.70
2010,05,05,03,01,2.70
2010,05,05,03,02,2.80
2010,05,05,03,03,2.80
2010,05,05,03,04,2.80
2010,05,05,03,05,2.80
2010,05,05,03,06,2.80
2010,05,05,03,07,2.80
2010,05,05,03,08,2.80
2010,05,05,03,09,2.80
2010,05,05,03,10,2.80
2010,05,05,03,11,2.80
2010,05,05,03,12,2.80
2010,05,05,03,13,2.80
2010,05,05,03,14,2.80
2010,05,05,03,15,2.90
2010,05,05,03,16,2.90
2010,05,05,03,17,2.90
2010,05,05,03,18,2.90
2010,05,05,03,19,2.90
2010,05,05,03,20,2.90
2010,05,05,03,21,2.90
2010,05,05,03,22,2.90
2010,05,05,03,23,2.90
2010,05,05,03,24,2.90
2010,05,05,03,25,2.90
2010,05,05,03,26,2.90
2010,05,05,03,27,2.90
2010,05,05,03,28,2.90
2010,05,05,03,29,2.90
2010,05,05,03,30,2.90
2010,05,05,03,31,2.90
2010,05,05,03,32,2.90
2010,05,05,03,33,2.90
2010,05,05,03,34,2.90
2010,05,05,03,35,2.90
2010,05,05,03,36,2.90
2010,05,05,03,37,2.80
2010,05,05,03,38,2.80
2010,05,05,03,39,2.80
2010,05,05,03,40,2.80
2010,05,05,03,41,2.80
2010,05,05,03,42,2.80
2010,05,05,03,43,2.80
2010,05,05,03,44,2.80
2010,05,05,03,45,2.80
2010,05,05,03,46,2.80
2010,05,05,03,47,2.80
2010,05,05,03,48,2.80
2010,05,05,03,49,2.80
2010,05,05,03,50,2.70
2010,05,05,03,51,2.70
2010,05,05,03,52,2.70
2010,05,05,03,53,2.70
2010,05,05,03,54,2.70
2010,05,05,03,55,2.70
2010,05,05,03,56,2.70
2010,05,05,03,57,2.70
2010,05,05,03,58,2.70
2010,05,05,03,59,2.70
2010,05,05,04,00,2.60
2010,05,05,04,01,2.60
2010,05,05,04,02,2.60
2010,05,05,04,03,2.60
2010,05,05,04,04,2.50
2010,05,05,04,05,2.50
2010,05,05,04,06,2.50
2010,05,05,04,07,2.50
2010,05,05,04,08,2.50
2010,05,05,04,09,2.50
2010,05,05,04,10,2.50
2010,05,05,04,11,2.50
2010,05,05,04,12,2.50
2010,05,05,04,13,2.50
2010,05,05,04,14,2.50
2010,05,05,04,15,2.50
2010,05,05,04,16,2.50
2010,05,05,04,17,2.40
2010,05,05,04,18,2.40
2010,05,05,04,19,2.40
2010,05,05,04,20,2.40
2010,05,05,04,21,2.40
2010,05,05,04,22,2.40
2010,05,05,04,23,2.40
2010,05,05,04,24,2.40
2010,05,05,04,25,2.30
2010,05,05,04,26,2.30
2010,05,05,04,27,2.30
2010,05,05,04,28,2.30
2010,05,05,04,29,2.20
2010,05,05,04,30,2.20
2010,05,05,04,31,2.20
2010,05,05,04,32,2.20
2010,05,05,04,33,2.20
2010,05,05,04,34,2.20
2010,05,05,04,35,2.20
2010,05,05,04,36,2.20
2010,05,05,04,37,2.20
2010,05,05,04,38,2.20
2010,05,05,04,39,2.20
2010,05,05,04,40,2.20
2010,05,05,04,41,2.10
2010,05,05,04,42,2.10
2010,05,05,04,43,2.10
2010,05,05,04,44,2.10
2010,05,05,04,45,2.10
2010,05,05,04,46,2.10
2010,05,05,04,47,2.00
2010,05,05,04,48,2.00
2010,05,05,04,49,2.00
2010,05,05,04,50,1.90
2010,05,05,04,51,1.80
2010,05,05,04,52,1.80
2010,05,05,04,53,1.80
2010,05,05,04,54,1.80
2010,05,05,04,55,1.80
2010,05,05,04,56,1.90
2010,05,05,04,57,2.00
2010,05,05,04,58,2.10
2010,05,05,04,59,2.10
2010,05,05,05,00,2.20
2010,05,05,05,01,2.20
2010,05,05,05,02,2.20
2010,05,05,05,03,2.20
2010,05,05,05,04,2.20
2010,05,05,05,05,2.20
2010,05,05,05,06,2.20
2010,05,05,05,07,2.20
2010,05,05,05,08,2.20
2010,05,05,05,09,2.20
2010,05,05,05,10,2.20
2010,05,05,05,11,2.20
2010,05,05,05,12,2.20
2010,05,05,05,13,2.20
2010,05,05,05,14,2.20
2010,05,05,05,15,2.20
2010,05,05,05,16,2.20
2010,05,05,05,17,2.20
2010,05,05,05,18,2.20
2010,05,05,05,19,2.20
2010,05,05,05,20,2.20
2010,05,05,05,21,2.20
2010,05,05,05,22,2.20
2010,05,05,05,23,2.20
2010,05,05,05,24,2.20
2010,05,05,05,25,2.20
2010,05,05,05,26,2.20
2010,05,05,05,27,2.20
2010,05,05,05,28,2.10
2010,05,05,05,29,2.10
2010,05,05,05,30,2.10
2010,05,05,05,31,2.10
2010,05,05,05,32,2.00
2010,05,05,05,33,2.00
2010,05,05,05,34,2.00
2010,05,05,05,35,2.00
2010,05,05,05,36,1.90
2010,05,05,05,37,1.90
2010,05,05,05,38,1.90
2010,05,05,05,39,1.90
2010,05,05,05,40,1.80
2010,05,05,05,41,1.80
2010,05,05,05,42,1.80
2010,05,05,05,43,1.80
2010,05,05,05,44,1.80
2010,05,05,05,45,1.80
2010,05,05,05,46,1.80
2010,05,05,05,47,1.80
2010,05,05,05,48,1.80
2010,05,05,05,49,1.80
2010,05,05,05,50,1.80
2010,05,05,05,51,1.70
2010,05,05,05,52,1.70
2010,05,05,05,53,1.70
2010,05,05,05,54,1.70
2010,05,05,05,55,1.70
2010,05,05,05,56,1.60
2010,05,05,05,57,1.60
2010,05,05,05,58,1.60
2010,05,05,05,59,1.60
2010,05,05,06,00,1.50
2010,05,05,06,01,1.50
2010,05,05,06,02,1.50
2010,05,05,06,03,1.50
2010,05,05,06,04,1.40
2010,05,05,06,05,1.40
2010,05,05,06,06,1.40
2010,05,05,06,07,1.40
2010,05,05,06,08,1.40
2010,05,05,06,09,1.30
2010,05,05,06,10,1.30
2010,05,05,06,11,1.30
2010,05,05,06,12,1.40
2010,05,05,06,13,1.40
2010,05,05,06,14,1.40
2010,05,05,06,15,1.40
2010,05,05,06,16,1.40
2010,05,05,06,17,1.50
2010,05,05,06,18,1.50
2010,05,05,06,19,1.50
2010,05,05,06,20,1.50
2010,05,05,06,21,1.50
2010,05,05,06,22,1.50
2010,05,05,06,23,1.50
2010,05,05,06,24,1.50
2010,05,05,06,25,1.50
2010,05,05,06,26,1.50
2010,05,05,06,27,1.50
2010,05,05,06,28,1.50
2010,05,05,06,29,1.50
2010,05,05,06,30,1.50
2010,05,05,06,31,1.40
2010,05,05,06,32,1.40
2010,05,05,06,33,1.40
2010,05,05,06,34,1.40
2010,05,05,06,35,1.40
2010,05,05,06,36,1.40
2010,05,05,06,37,1.40
2010,05,05,06,38,1.40
2010,05,05,06,39,1.40
2010,05,05,06,40,1.50
2010,05,05,06,41,1.50
2010,05,05,06,42,1.50
2010,05,05,06,43,1.60
2010,05,05,06,44,1.70
2010,05,05,06,45,1.90
2010,05,05,06,46,2.00
2010,05,05,06,47,2.10
2010,05,05,06,48,2.20
2010,05,05,06,49,2.20
2010,05,05,06,50,2.30
2010,05,05,06,51,2.30
2010,05,05,06,52,2.40
2010,05,05,06,53,2.40
2010,05,05,06,54,2.40
2010,05,05,06,55,2.40
2010,05,05,06,56,2.40
2010,05,05,06,57,2.40
2010,05,05,06,58,2.40
2010,05,05,06,59,2.50
2010,05,05,07,00,2.50
2010,05,05,07,01,2.60
2010,05,05,07,02,2.60
2010,05,05,07,03,2.60
2010,05,05,07,04,2.70
2010,05,05,07,05,2.70
2010,05,05,07,06,2.70
2010,05,05,07,07,2.80
2010,05,05,07,08,2.80
2010,05,05,07,09,2.90
2010,05,05,07,10,2.90
2010,05,05,07,11,2.90
2010,05,05,07,12,2.90
2010,05,05,07,13,2.90
2010,05,05,07,14,2.90
2010,05,05,07,15,3.00
2010,05,05,07,16,3.10
2010,05,05,07,17,3.10
2010,05,05,07,18,3.10
2010,05,05,07,19,3.10
2010,05,05,07,20,3.10
2010,05,05,07,21,3.10
2010,05,05,07,22,3.10
2010,05,05,07,23,3.20
2010,05,05,07,24,3.20
2010,05,05,07,25,3.20
2010,05,05,07,26,3.30
2010,05,05,07,27,3.30
2010,05,05,07,28,3.30
2010,05,05,07,29,3.30
2010,05,05,07,30,3.30
2010,05,05,07,31,3.30
2010,05,05,07,32,3.30
2010,05,05,07,33,3.30
2010,05,05,07,34,3.30
2010,05,05,07,35,3.30
2010,05,05,07,36,3.30
2010,05,05,07,37,3.30
2010,05,05,07,38,3.30
2010,05,05,07,39,3.30
2010,05,05,07,40,3.30
2010,05,05,07,41,3.30
2010,05,05,07,42,3.30
2010,05,05,07,43,3.30
2010,05,05,07,44,3.30
2010,05,05,07,45,3.30
2010,05,05,07,46,3.30
2010,05,05,07,47,3.40
2010,05,05,07,48,3.40
2010,05,05,07,49,3.40
2010,05,05,07,50,3.40
2010,05,05,07,51,3.40
2010,05,05,07,52,3.40
2010,05,05,07,53,3.50
2010,05,05,07,54,3.50
2010,05,05,07,55,3.50
2010,05,05,07,56,3.60
2010,05,05,07,57,3.60
2010,05,05,07,58,3.60
2010,05,05,07,59,3.70
2010,05,05,08,00,3.70
2010,05,05,08,01,3.80
2010,05,05,08,02,3.80
2010,05,05,08,03,3.80
2010,05,05,08,04,3.90
2010,05,05,08,05,3.90
2010,05,05,08,06,4.00
2010,05,05,08,07,4.10
2010,05,05,08,08,4.20
2010,05,05,08,09,4.20
2010,05,05,08,10,4.30
2010,05,05,08,11,4.40
2010,05,05,08,12,4.40
2010,05,05,08,13,4.50
2010,05,05,08,14,4.50
2010,05,05,08,15,4.60
2010,05,05,08,16,4.60
2010,05,05,08,17,4.70
2010,05,05,08,18,4.70
2010,05,05,08,19,4.80
2010,05,05,08,20,4.80
2010,05,05,08,21,4.90
2010,05,05,08,22,4.90
2010,05,05,08,23,4.90
2010,05,05,08,24,5.00
2010,05,05,08,25,5.10
2010,05,05,08,26,5.10
2010,05,05,08,27,5.10
2010,05,05,08,28,5.10
2010,05,05,08,29,5.20
2010,05,05,08,30,5.20
2010,05,05,08,31,5.20
2010,05,05,08,32,5.30
2010,05,05,08,33,5.30
2010,05,05,08,34,5.30
2010,05,05,08,35,5.40
2010,05,05,08,36,5.50
2010,05,05,08,37,5.70
2010,05,05,08,38,5.70
2010,05,05,08,39,5.90
2010,05,05,08,40,6.00
2010,05,05,08,41,6.00
2010,05,05,08,42,6.10
2010,05,05,08,43,6.20
2010,05,05,08,44,6.30
2010,05,05,08,45,6.40
2010,05,05,08,46,6.40
2010,05,05,08,47,6.40
2010,05,05,08,48,6.40
2010,05,05,08,49,6.40
2010,05,05,08,50,6.40
2010,05,05,08,51,6.40
2010,05,05,08,52,6.50
2010,05,05,08,53,6.60
2010,05,05,08,54,6.60
2010,05,05,08,55,6.70
2010,05,05,08,56,6.80
2010,05,05,08,57,6.90
2010,05,05,08,58,7.00
2010,05,05,08,59,7.00
2010,05,05,09,00,7.10
2010,05,05,09,01,7.20
2010,05,05,09,02,7.20
2010,05,05,09,03,7.10
2010,05,05,09,04,7.10
2010,05,05,09,05,7.10
2010,05,05,09,06,7.10
2010,05,05,09,07,7.10
2010,05,05,09,08,7.10
2010,05,05,09,09,7.10
2010,05,05,09,10,7.20
2010,05,05,09,11,7.30
2010,05,05,09,12,7.30
2010,05,05,09,13,7.30
2010,05,05,09,14,7.40
2010,05,05,09,15,7.40
2010,05,05,09,16,7.40
2010,05,05,09,17,7.40
2010,05,05,09,18,7.40
2010,05,05,09,19,7.50
2010,05,05,09,20,7.60
2010,05,05,09,21,7.60
2010,05,05,09,22,7.70
2010,05,05,09,23,7.80
2010,05,05,09,24,7.80
2010,05,05,09,25,7.90
2010,05,05,09,26,7.90
2010,05,05,09,27,7.90
2010,05,05,09,28,7.90
2010,05,05,09,29,8.00
2010,05,05,09,30,8.10
2010,05,05,09,31,8.20
2010,05,05,09,32,8.10
2010,05,05,09,33,8.10
2010,05,05,09,34,8.10
2010,05,05,09,35,8.20
2010,05,05,09,36,8.20
2010,05,05,09,37,8.30
2010,05,05,09,38,8.30
2010,05,05,09,39,8.40
2010,05,05,09,40,8.50
2010,05,05,09,41,8.50
2010,05,05,09,42,8.50
2010,05,05,09,43,8.50
2010,05,05,09,44,8.50
2010,05,05,09,45,8.40
2010,05,05,09,46,8.30
2010,05,05,09,47,8.30
2010,05,05,09,48,8.40
2010,05,05,09,49,8.40
2010,05,05,09,50,8.50
2010,05,05,09,51,8.50
2010,05,05,09,52,8.50
2010,05,05,09,53,8.60
2010,05,05,09,54,8.70
2010,05,05,09,55,8.70
2010,05,05,09,56,8.80
2010,05,05,09,57,8.80
2010,05,05,09,58,8.80
2010,05,05,09,59,8.70
2010,05,05,10,00,8.70
2010,05,05,10,01,8.80
2010,05,05,10,02,8.80
2010,05,05,10,03,8.80
2010,05,05,10,04,8.90
2010,05,05,10,05,8.90
2010,05,05,10,06,8.90
2010,05,05,10,07,8.90
2010,05,05,10,08,9.00
2010,05,05,10,09,9.00
2010,05,05,10,10,9.00
2010,05,05,10,11,9.10
2010,05,05,10,12,9.10
2010,05,05,10,13,9.20
2010,05,05,10,14,9.20
2010,05,05,10,15,9.20
2010,05,05,10,16,9.20
2010,05,05,10,17,9.20
2010,05,05,10,18,9.20
2010,05,05,10,19,9.20
2010,05,05,10,20,9.20
2010,05,05,10,21,9.20
2010,05,05,10,22,9.20
2010,05,05,10,23,9.30
2010,05,05,10,24,9.30
2010,05,05,10,25,9.30
2010,05,05,10,26,9.30
2010,05,05,10,27,9.30
2010,05,05,10,28,9.20
2010,05,05,10,29,9.20
2010,05,05,10,30,9.30
2010,05,05,10,31,9.30
2010,05,05,10,32,9.30
2010,05,05,10,33,9.40
2010,05,05,10,34,9.40
2010,05,05,10,35,9.40
2010,05,05,10,36,9.30
2010,05,05,10,37,9.40
2010,05,05,10,38,9.40
2010,05,05,10,39,9.40
2010,05,05,10,40,9.40
2010,05,05,10,41,9.40
2010,05,05,10,42,9.30
2010,05,05,10,43,9.30
2010,05,05,10,44,9.40
2010,05,05,10,45,9.50
2010,05,05,10,46,9.50
2010,05,05,10,47,9.60
2010,05,05,10,48,9.60
2010,05,05,10,49,9.50
2010,05,05,10,50,9.40
2010,05,05,10,51,9.40
2010,05,05,10,52,9.40
2010,05,05,10,53,9.30
2010,05,05,10,54,9.30
2010,05,05,10,55,9.30
2010,05,05,10,56,9.30
2010,05,05,10,57,9.30
2010,05,05,10,58,9.40
2010,05,05,10,59,9.30
2010,05,05,11,00,9.30
2010,05,05,11,01,9.30
2010,05,05,11,02,9.30
2010,05,05,11,03,9.30
2010,05,05,11,04,9.30
2010,05,05,11,05,9.30
2010,05,05,11,06,9.30
2010,05,05,11,07,9.30
2010,05,05,11,08,9.30
2010,05,05,11,09,9.40
2010,05,05,11,10,9.50
2010,05,05,11,11,9.60
2010,05,05,11,12,9.70
2010,05,05,11,13,9.90
2010,05,05,11,14,9.90
2010,05,05,11,15,10.10
2010,05,05,11,16,10.00
2010,05,05,11,17,9.90
2010,05,05,11,18,10.00
2010,05,05,11,19,10.10
2010,05,05,11,20,10.00
2010,05,05,11,21,9.90
2010,05,05,11,22,9.90
2010,05,05,11,23,9.90
2010,05,05,11,24,9.90
2010,05,05,11,25,9.90
2010,05,05,11,26,9.90
2010,05,05,11,27,9.80
2010,05,05,11,28,9.80
2010,05,05,11,29,9.70
2010,05,05,11,30,9.70
2010,05,05,11,31,9.70
2010,05,05,11,32,9.60
2010,05,05,11,33,9.60
2010,05,05,11,34,9.50
2010,05,05,11,35,9.50
2010,05,05,11,36,9.40
2010,05,05,11,37,9.40
2010,05,05,11,38,9.40
2010,05,05,11,39,9.40
2010,05,05,11,40,9.40
2010,05,05,11,41,9.40
2010,05,05,11,42,9.40
2010,05,05,11,43,9.50
2010,05,05,11,44,9.50
2010,05,05,11,45,9.60
2010,05,05,11,46,9.70
2010,05,05,11,47,9.70
2010,05,05,11,48,9.80
2010,05,05,11,49,9.80
2010,05,05,11,50,9.70
2010,05,05,11,51,9.70
2010,05,05,11,52,9.70
2010,05,05,11,53,9.70
2010,05,05,11,54,9.70
2010,05,05,11,55,9.70
2010,05,05,11,56,9.70
2010,05,05,11,57,9.70
2010,05,05,11,58,9.60
2010,05,05,11,59,9.50
2010,05,05,12,00,9.40
2010,05,05,12,01,9.40
2010,05,05,12,02,9.40
2010,05,05,12,03,9.40
2010,05,05,12,04,9.30
2010,05,05,12,05,9.30
2010,05,05,12,06,9.30
2010,05,05,12,07,9.30
2010,05,05,12,08,9.30
2010,05,05,12,09,9.30
2010,05,05,12,10,9.20
2010,05,05,12,11,9.20
2010,05,05,12,12,9.20
2010,05,05,12,13,9.20
2010,05,05,12,14,9.20
2010,05,05,12,15,9.20
2010,05,05,12,16,9.20
2010,05,05,12,17,9.20
2010,05,05,12,18,9.20
2010,05,05,12,19,9.20
2010,05,05,12,20,9.20
2010,05,05,12,21,9.20
2010,05,05,12,22,9.20
2010,05,05,12,23,9.20
2010,05,05,12,24,9.20
2010,05,05,12,25,9.20
2010,05,05,12,26,9.30
2010,05,05,12,27,9.40
2010,05,05,12,28,9.50
2010,05,05,12,29,9.50
2010,05,05,12,30,9.60
2010,05,05,12,31,9.60
2010,05,05,12,32,9.70
2010,05,05,12,33,9.70
2010,05,05,12,34,9.70
2010,05,05,12,35,9.70
2010,05,05,12,36,9.70
2010,05,05,12,37,9.70
2010,05,05,12,38,9.70
2010,05,05,12,39,9.70
2010,05,05,12,40,9.70
2010,05,05,12,41,9.70
2010,05,05,12,42,9.70
2010,05,05,12,43,9.80
2010,05,05,12,44,9.80
2010,05,05,12,45,9.80
2010,05,05,12,46,9.80
2010,05,05,12,47,9.70
2010,05,05,12,48,9.70
2010,05,05,12,49,9.70
2010,05,05,12,50,9.70
2010,05,05,12,51,9.70
2010,05,05,12,52,9.70
2010,05,05,12,53,9.70
2010,05,05,12,54,9.60
2010,05,05,12,55,9.60
2010,05,05,12,56,9.60
2010,05,05,12,57,9.70
2010,05,05,12,58,9.70
2010,05,05,12,59,9.70
2010,05,05,13,00,9.70
2010,05,05,13,01,9.70
2010,05,05,13,02,9.70
2010,05,05,13,03,9.70
2010,05,05,13,04,9.70
2010,05,05,13,05,9.70
2010,05,05,13,06,9.70
2010,05,05,13,07,9.70
2010,05,05,13,08,9.80
2010,05,05,13,09,9.80
2010,05,05,13,10,9.90
2010,05,05,13,11,9.90
2010,05,05,13,12,9.90
2010,05,05,13,13,9.90
2010,05,05,13,14,9.80
2010,05,05,13,15,9.80
2010,05,05,13,16,9.80
2010,05,05,13,17,9.80
2010,05,05,13,18,9.80
2010,05,05,13,19,9.80
2010,05,05,13,20,9.90
2010,05,05,13,21,9.90
2010,05,05,13,22,9.90
2010,05,05,13,23,9.90
2010,05,05,13,24,9.90
2010,05,05,13,25,9.90
2010,05,05,13,26,10.00
2010,05,05,13,27,10.10
2010,05,05,13,28,10.10
2010,05,05,13,29,10.10
2010,05,05,13,30,10.20
2010,05,05,13,31,10.30
2010,05,05,13,32,10.40
2010,05,05,13,33,10.40
2010,05,05,13,34,10.40
2010,05,05,13,35,10.60
2010,05,05,13,36,10.60
2010,05,05,13,37,10.50
2010,05,05,13,38,10.40
2010,05,05,13,39,10.50
2010,05,05,13,40,10.60
2010,05,05,13,41,10.60
2010,05,05,13,42,10.70
2010,05,05,13,43,10.90
2010,05,05,13,44,10.90
2010,05,05,13,45,11.10
2010,05,05,13,46,11.20
2010,05,05,13,47,11.20
2010,05,05,13,48,11.20
2010,05,05,13,49,11.20
2010,05,05,13,50,11.30
2010,05,05,13,51,11.40
2010,05,05,13,52,11.40
2010,05,05,13,53,11.30
2010,05,05,13,54,11.40
2010,05,05,13,55,11.40
2010,05,05,13,56,11.40
2010,05,05,13,57,11.40
2010,05,05,13,58,11.40
2010,05,05,13,59,11.40
2010,05,05,14,00,11.40
2010,05,05,14,01,11.40
2010,05,05,14,02,11.40
2010,05,05,14,03,11.40
2010,05,05,14,04,11.40
2010,05,05,14,05,11.40
2010,05,05,14,06,11.40
2010,05,05,14,07,11.50
2010,05,05,14,08,11.60
2010,05,05,14,09,11.70
2010,05,05,14,10,11.80
2010,05,05,14,11,11.90
2010,05,05,14,12,12.00
2010,05,05,14,13,12.00
2010,05,05,14,14,12.10
2010,05,05,14,15,12.30
2010,05,05,14,16,12.30
2010,05,05,14,17,12.30
2010,05,05,14,18,12.30
2010,05,05,14,19,12.20
2010,05,05,14,20,12.10
2010,05,05,14,21,12.10
2010,05,05,14,22,12.10
2010,05,05,14,23,12.10
2010,05,05,14,24,12.10
2010,05,05,14,25,12.20
2010,05,05,14,26,12.20
2010,05,05,14,27,12.30
2010,05,05,14,28,12.30
2010,05,05,14,29,12.40
2010,05,05,14,30,12.50
2010,05,05,14,31,12.50
2010,05,05,14,32,12.40
2010,05,05,14,33,12.30
2010,05,05,14,34,12.20
2010,05,05,14,35,12.10
2010,05,05,14,36,12.10
2010,05,05,14,37,12.20
2010,05,05,14,38,12.20
2010,05,05,14,39,12.30
2010,05,05,14,40,12.30
2010,05,05,14,41,12.20
2010,05,05,14,42,12.20
2010,05,05,14,43,12.30
2010,05,05,14,44,12.30
2010,05,05,14,45,12.30
2010,05,05,14,46,12.30
2010,05,05,14,47,12.30
2010,05,05,14,48,12.30
2010,05,05,14,49,12.30
2010,05,05,14,50,12.40
2010,05,05,14,51,12.40
2010,05,05,14,52,12.40
2010,05,05,14,53,12.40
2010,05,05,14,54,12.40
2010,05,05,14,55,12.40
2010,05,05,14,56,12.50
2010,05,05,14,57,12.60
2010,05,05,14,58,12.50
2010,05,05,14,59,12.50
2010,05,05,15,00,12.50
2010,05,05,15,01,12.50
2010,05,05,15,02,12.60
2010,05,05,15,03,12.60
2010,05,05,15,04,12.70
2010,05,05,15,05,12.80
2010,05,05,15,06,12.90
2010,05,05,15,07,12.90
2010,05,05,15,08,12.90
2010,05,05,15,09,13.00
2010,05,05,15,10,13.00
2010,05,05,15,11,13.00
2010,05,05,15,12,13.10
2010,05,05,15,13,13.10
2010,05,05,15,14,13.10
2010,05,05,15,15,13.00
2010,05,05,15,16,12.90
2010,05,05,15,17,12.90
2010,05,05,15,18,12.80
2010,05,05,15,19,12.80
2010,05,05,15,20,12.90
2010,05,05,15,21,13.10
2010,05,05,15,22,13.20
2010,05,05,15,23,13.20
2010,05,05,15,24,13.10
2010,05,05,15,25,13.10
2010,05,05,15,26,13.10
2010,05,05,15,27,13.00
2010,05,05,15,28,12.90
2010,05,05,15,29,12.90
2010,05,05,15,30,12.80
2010,05,05,15,31,12.90
2010,05,05,15,32,13.00
2010,05,05,15,33,13.10
2010,05,05,15,34,13.10
2010,05,05,15,35,13.20
2010,05,05,15,36,13.20
2010,05,05,15,37,13.20
2010,05,05,15,38,13.10
2010,05,05,15,39,13.00
2010,05,05,15,40,12.90
2010,05,05,15,41,12.80
2010,05,05,15,42,12.90
2010,05,05,15,43,12.90
2010,05,05,15,44,13.00
2010,05,05,15,45,13.00
2010,05,05,15,46,12.90
2010,05,05,15,47,12.90
2010,05,05,15,48,12.80
2010,05,05,15,49,12.90
2010,05,05,15,50,12.90
2010,05,05,15,51,12.90
2010,05,05,15,52,12.90
2010,05,05,15,53,12.80
2010,05,05,15,54,12.80
2010,05,05,15,55,12.80
2010,05,05,15,56,12.80
2010,05,05,15,57,12.80
2010,05,05,15,58,12.80
2010,05,05,15,59,12.80
2010,05,05,16,00,12.80
2010,05,05,16,01,12.80
2010,05,05,16,02,12.80
2010,05,05,16,03,12.80
2010,05,05,16,04,12.70
2010,05,05,16,05,12.70
2010,05,05,16,06,12.70
2010,05,05,16,07,12.70
2010,05,05,16,08,12.70
2010,05,05,16,09,12.80
2010,05,05,16,10,12.80
2010,05,05,16,11,12.80
2010,05,05,16,12,12.80
2010,05,05,16,13,12.80
2010,05,05,16,14,12.80
2010,05,05,16,15,12.90
2010,05,05,16,16,12.90
2010,05,05,16,17,12.90
2010,05,05,16,18,12.90
2010,05,05,16,19,12.80
2010,05,05,16,20,12.80
2010,05,05,16,21,12.80
2010,05,05,16,22,12.80
2010,05,05,16,23,12.90
2010,05,05,16,24,12.90
2010,05,05,16,25,12.80
2010,05,05,16,26,12.70
2010,05,05,16,27,12.60
2010,05,05,16,28,12.50
2010,05,05,16,29,12.50
2010,05,05,16,30,12.50
2010,05,05,16,31,12.50
2010,05,05,16,32,12.50
2010,05,05,16,33,12.40
2010,05,05,16,34,12.30
2010,05,05,16,35,12.40
2010,05,05,16,36,12.50
2010,05,05,16,37,12.60
2010,05,05,16,38,12.60
2010,05,05,16,39,12.70
2010,05,05,16,40,12.60
2010,05,05,16,41,12.40
2010,05,05,16,42,12.30
2010,05,05,16,43,12.20
2010,05,05,16,44,12.10
2010,05,05,16,45,12.00
2010,05,05,16,46,12.00
2010,05,05,16,47,12.00
2010,05,05,16,48,12.00
2010,05,05,16,49,12.10
2010,05,05,16,50,12.20
2010,05,05,16,51,12.20
2010,05,05,16,52,12.20
2010,05,05,16,53,12.20
2010,05,05,16,54,12.10
2010,05,05,16,55,12.00
2010,05,05,16,56,11.90
2010,05,05,16,57,11.80
2010,05,05,16,58,11.70
2010,05,05,16,59,11.70
2010,05,05,17,00,11.70
2010,05,05,17,01,11.60
2010,05,05,17,02,11.70
2010,05,05,17,03,11.70
2010,05,05,17,04,11.80
2010,05,05,17,05,11.90
2010,05,05,17,06,12.00
2010,05,05,17,07,12.10
2010,05,05,17,08,12.20
2010,05,05,17,09,12.20
2010,05,05,17,10,12.20
2010,05,05,17,11,12.20
2010,05,05,17,12,12.10
2010,05,05,17,13,12.10
2010,05,05,17,14,12.10
2010,05,05,17,15,12.20
2010,05,05,17,16,12.10
2010,05,05,17,17,12.10
2010,05,05,17,18,12.20
2010,05,05,17,19,12.20
2010,05,05,17,20,12.30
2010,05,05,17,21,12.30
2010,05,05,17,22,12.40
2010,05,05,17,23,12.40
2010,05,05,17,24,12.50
2010,05,05,17,25,12.50
2010,05,05,17,26,12.50
2010,05,05,17,27,12.40
2010,05,05,17,28,12.30
2010,05,05,17,29,12.10
2010,05,05,17,30,12.00
2010,05,05,17,31,11.90
2010,05,05,17,32,11.90
2010,05,05,17,33,11.80
2010,05,05,17,34,11.80
2010,05,05,17,35,11.80
2010,05,05,17,36,11.80
2010,05,05,17,37,11.80
2010,05,05,17,38,11.80
2010,05,05,17,39,11.80
2010,05,05,17,40,11.80
2010,05,05,17,41,11.80
2010,05,05,17,42,11.80
2010,05,05,17,43,11.80
2010,05,05,17,44,11.70
2010,05,05,17,45,11.70
2010,05,05,17,46,11.80
2010,05,05,17,47,11.80
2010,05,05,17,48,11.80
2010,05,05,17,49,11.70
2010,05,05,17,50,11.70
2010,05,05,17,51,11.70
2010,05,05,17,52,11.70
2010,05,05,17,53,11.70
2010,05,05,17,54,11.70